Time,TemperatureF,DewpointF,PressureIn,WindDirection,WindDirectionDegrees,WindSpeedMPH,WindSpeedGustMPH,Humidity,HourlyPrecipIn,Conditions,Clouds,dailyrainin,SoftwareType,DateUTC
2013-03-04 00:11:00,53.3,43.0,30.18,NW,304,5.0,13.0,68,0.00,,,0.00,weatherlink.com 1.10,2013-03-04 05:11:00,
2013-03-04 00:26:00,53.2,42.0,30.18,NNW,334,3.0,12.0,65,0.00,,,0.00,weatherlink.com 1.10,2013-03-04 05:26:00,
2013-03-04 00:41:00,53.1,42.0,30.17,NNE,30,3.0,12.0,67,0.00,,,0.00,weatherlink.com 1.10,2013-03-04 05:41:00,
2013-03-04 00:56:00,53.1,40.0,30.17,WNW,295,3.0,12.0,62,0.00,,,0.00,weatherlink.com 1.10,2013-03-04 05:56:00,
2013-03-04 01:11:00,53.1,42.0,30.17,WNW,300,2.0,9.0,65,0.00,,,0.00,weatherlink.com 1.10,2013-03-04 06:11:00,
2013-03-04 01:26:00,53.1,41.0,30.17,West,277,1.0,9.0,64,0.00,,,0.00,weatherlink.com 1.10,2013-03-04 06:26:00,
2013-03-04 01:41:00,52.5,40.0,30.17,NNW,340,4.0,8.0,62,0.00,,,0.00,weatherlink.com 1.10,2013-03-04 06:41:00,
2013-03-04 01:56:00,52.6,41.0,30.17,NNW,343,2.0,8.0,65,0.00,,,0.00,weatherlink.com 1.10,2013-03-04 06:56:00,
2013-03-04 02:11:00,52.6,40.0,30.16,NNW,347,2.0,7.0,63,0.00,,,0.00,weatherlink.com 1.10,2013-03-04 07:11:00,
2013-03-04 02:26:00,52.9,42.0,30.16,NNW,328,2.0,7.0,67,0.00,,,0.00,weatherlink.com 1.10,2013-03-04 07:26:00,
2013-03-04 02:41:00,52.9,42.0,30.15,NNE,32,2.0,6.0,67,0.00,,,0.00,weatherlink.com 1.10,2013-03-04 07:41:00,
2013-03-04 02:56:00,52.5,41.0,30.15,NNE,25,2.0,6.0,66,0.00,,,0.00,weatherlink.com 1.10,2013-03-04 07:56:00,
2013-03-04 03:11:00,52.2,41.0,30.14,NW,307,10.0,10.0,67,0.00,,,0.00,weatherlink.com 1.10,2013-03-04 08:11:00,
2013-03-04 03:27:00,52.0,41.0,30.14,NNE,13,1.0,8.0,67,0.00,,,0.00,weatherlink.com 1.10,2013-03-04 08:27:00,
2013-03-04 03:41:00,51.8,41.0,30.14,North,5,3.0,6.0,68,0.00,,,0.00,weatherlink.com 1.10,2013-03-04 08:41:00,
2013-03-04 03:56:00,51.6,42.0,30.13,NNW,342,1.0,6.0,70,0.00,,,0.00,weatherlink.com 1.10,2013-03-04 08:56:00,
2013-03-04 04:11:00,51.7,42.0,30.14,NNW,338,1.0,7.0,69,0.00,,,0.00,weatherlink.com 1.10,2013-03-04 09:11:00,
2013-03-04 04:26:00,51.6,42.0,30.14,North,349,1.0,4.0,69,0.00,,,0.00,weatherlink.com 1.10,2013-03-04 09:26:00,
2013-03-04 04:41:00,51.6,42.0,30.15,NE,39,5.0,6.0,70,0.00,,,0.00,weatherlink.com 1.10,2013-03-04 09:41:00,
2013-03-04 04:56:00,50.3,42.0,30.16,NNE,22,0.0,1.0,74,0.00,,,0.00,weatherlink.com 1.10,2013-03-04 09:56:00,
2013-03-04 05:11:00,49.1,42.0,30.17,WNW,290,0.0,2.0,76,0.00,,,0.00,weatherlink.com 1.10,2013-03-04 10:11:00,
2013-03-04 05:26:00,48.4,42.0,30.17,East,80,3.0,3.0,78,0.00,,,0.00,weatherlink.com 1.10,2013-03-04 10:26:00,
2013-03-04 05:41:00,47.5,41.0,30.17,NE,50,0.0,3.0,79,0.00,,,0.00,weatherlink.com 1.10,2013-03-04 10:41:00,
2013-03-04 05:56:00,46.6,40.0,30.18,NE,41,0.0,2.0,77,0.00,,,0.00,weatherlink.com 1.10,2013-03-04 10:56:00,
2013-03-04 06:11:00,45.9,38.0,30.19,ESE,107,2.0,3.0,73,0.00,,,0.00,weatherlink.com 1.10,2013-03-04 11:11:00,
2013-03-04 06:27:00,45.6,37.0,30.20,East,92,1.0,3.0,71,0.00,,,0.00,weatherlink.com 1.10,2013-03-04 11:27:00,
2013-03-04 06:42:00,45.1,36.0,30.20,ESE,117,1.0,3.0,70,0.00,,,0.00,weatherlink.com 1.10,2013-03-04 11:42:00,
2013-03-04 06:57:00,44.6,35.0,30.21,ESE,107,1.0,5.0,69,0.00,,,0.00,weatherlink.com 1.10,2013-03-04 11:57:00,
2013-03-04 07:12:00,44.6,33.0,30.21,East,98,0.0,5.0,65,0.00,,,0.00,weatherlink.com 1.10,2013-03-04 12:12:00,
2013-03-04 07:27:00,45.0,33.0,30.22,SE,134,1.0,5.0,63,0.00,,,0.00,weatherlink.com 1.10,2013-03-04 12:27:00,
2013-03-04 07:42:00,45.7,32.0,30.22,SE,124,3.0,5.0,60,0.00,,,0.00,weatherlink.com 1.10,2013-03-04 12:42:00,
2013-03-04 07:57:00,46.8,33.0,30.22,NE,47,2.0,4.0,60,0.00,,,0.00,weatherlink.com 1.10,2013-03-04 12:57:00,
2013-03-04 08:12:00,48.6,34.0,30.23,ENE,66,3.0,4.0,58,0.00,,,0.00,weatherlink.com 1.10,2013-03-04 13:12:00,
2013-03-04 08:27:00,49.9,35.0,30.22,East,84,2.0,6.0,58,0.00,,,0.00,weatherlink.com 1.10,2013-03-04 13:27:00,
2013-03-04 08:42:00,51.0,37.0,30.23,East,79,1.0,6.0,59,0.00,,,0.00,weatherlink.com 1.10,2013-03-04 13:42:00,
2013-03-04 08:57:00,52.6,37.0,30.24,ENE,75,2.0,4.0,56,0.00,,,0.00,weatherlink.com 1.10,2013-03-04 13:57:00,
2013-03-04 09:13:00,53.0,37.0,30.25,SE,125,1.0,7.0,55,0.00,,,0.00,weatherlink.com 1.10,2013-03-04 14:13:00,
2013-03-04 09:27:00,53.8,36.0,30.25,ENE,58,1.0,5.0,52,0.00,,,0.00,weatherlink.com 1.10,2013-03-04 14:27:00,
2013-03-04 09:42:00,54.2,38.0,30.24,ENE,71,2.0,4.0,54,0.00,,,0.00,weatherlink.com 1.10,2013-03-04 14:42:00,
2013-03-04 09:57:00,54.9,38.0,30.24,ENE,70,1.0,5.0,53,0.00,,,0.00,weatherlink.com 1.10,2013-03-04 14:57:00,
2013-03-04 10:12:00,55.5,37.0,30.24,NE,53,1.0,5.0,51,0.00,,,0.00,weatherlink.com 1.10,2013-03-04 15:12:00,
2013-03-04 10:27:00,56.6,37.0,30.24,ENE,75,1.0,6.0,48,0.00,,,0.00,weatherlink.com 1.10,2013-03-04 15:27:00,
2013-03-04 10:42:00,56.7,37.0,30.23,East,89,3.0,5.0,48,0.00,,,0.00,weatherlink.com 1.10,2013-03-04 15:42:00,
2013-03-04 10:57:00,57.0,37.0,30.23,NE,49,2.0,6.0,48,0.00,,,0.00,weatherlink.com 1.10,2013-03-04 15:57:00,
2013-03-04 11:12:00,58.5,39.0,30.23,NNE,18,1.0,4.0,48,0.00,,,0.00,weatherlink.com 1.10,2013-03-04 16:12:00,
2013-03-04 11:27:00,60.1,40.0,30.23,NNW,342,1.0,3.0,48,0.00,,,0.00,weatherlink.com 1.10,2013-03-04 16:27:00,
2013-03-04 11:42:00,59.3,39.0,30.22,WNW,289,2.0,4.0,48,0.00,,,0.00,weatherlink.com 1.10,2013-03-04 16:42:00,
2013-03-04 11:57:00,59.9,40.0,30.21,East,91,1.0,4.0,48,0.00,,,0.00,weatherlink.com 1.10,2013-03-04 16:57:00,
2013-03-04 12:12:00,60.1,40.0,30.21,North,7,1.0,4.0,47,0.00,,,0.00,weatherlink.com 1.10,2013-03-04 17:12:00,
2013-03-04 12:27:00,59.5,39.0,30.21,NW,309,1.0,5.0,47,0.00,,,0.00,weatherlink.com 1.10,2013-03-04 17:27:00,
2013-03-04 12:43:00,59.0,40.0,30.20,WNW,295,2.0,5.0,49,0.00,,,0.00,weatherlink.com 1.10,2013-03-04 17:43:00,
2013-03-04 12:58:00,58.1,39.0,30.19,NW,308,3.0,7.0,49,0.00,,,0.00,weatherlink.com 1.10,2013-03-04 17:58:00,
2013-03-04 13:13:00,58.8,38.0,30.18,NNE,20,3.0,8.0,47,0.00,,,0.00,weatherlink.com 1.10,2013-03-04 18:13:00,
2013-03-04 13:28:00,59.5,41.0,30.17,NNW,330,1.0,8.0,51,0.00,,,0.00,weatherlink.com 1.10,2013-03-04 18:28:00,
2013-03-04 13:43:00,60.6,40.0,30.17,North,9,2.0,6.0,47,0.00,,,0.00,weatherlink.com 1.10,2013-03-04 18:43:00,
2013-03-04 13:58:00,59.8,41.0,30.17,NW,314,4.0,7.0,50,0.00,,,0.00,weatherlink.com 1.10,2013-03-04 18:58:00,
2013-03-04 14:13:00,59.1,42.0,30.17,NE,40,1.0,8.0,53,0.00,,,0.00,weatherlink.com 1.10,2013-03-04 19:13:00,
2013-03-04 14:28:00,59.9,40.0,30.16,NW,324,2.0,6.0,48,0.00,,,0.00,weatherlink.com 1.10,2013-03-04 19:28:00,
2013-03-04 14:43:00,59.9,42.0,30.16,NNE,18,1.0,7.0,51,0.00,,,0.00,weatherlink.com 1.10,2013-03-04 19:43:00,
2013-03-04 14:58:00,60.0,42.0,30.16,North,359,1.0,6.0,52,0.00,,,0.00,weatherlink.com 1.10,2013-03-04 19:58:00,
2013-03-04 15:13:00,60.5,42.0,30.16,North,1,1.0,6.0,51,0.00,,,0.00,weatherlink.com 1.10,2013-03-04 20:13:00,
2013-03-04 15:28:00,60.9,43.0,30.16,NW,319,1.0,5.0,52,0.00,,,0.00,weatherlink.com 1.10,2013-03-04 20:28:00,
2013-03-04 15:43:00,59.4,42.0,30.15,North,4,1.0,8.0,52,0.00,,,0.00,weatherlink.com 1.10,2013-03-04 20:43:00,
2013-03-04 15:58:00,59.3,41.0,30.16,NW,308,4.0,7.0,52,0.00,,,0.00,weatherlink.com 1.10,2013-03-04 20:58:00,
2013-03-04 16:13:00,59.8,44.0,30.16,WNW,297,1.0,7.0,56,0.00,,,0.00,weatherlink.com 1.10,2013-03-04 21:13:00,
2013-03-04 16:28:00,59.1,43.0,30.16,NW,304,1.0,8.0,56,0.00,,,0.00,weatherlink.com 1.10,2013-03-04 21:28:00,
2013-03-04 16:43:00,59.3,43.0,30.15,NW,305,2.0,7.0,56,0.00,,,0.00,weatherlink.com 1.10,2013-03-04 21:43:00,
2013-03-04 16:58:00,59.3,43.0,30.16,WNW,297,2.0,7.0,56,0.00,,,0.00,weatherlink.com 1.10,2013-03-04 21:58:00,
2013-03-04 17:13:00,59.1,44.0,30.15,WNW,288,2.0,7.0,58,0.00,,,0.00,weatherlink.com 1.10,2013-03-04 22:13:00,
2013-03-04 17:28:00,59.2,44.0,30.16,WNW,291,1.0,6.0,58,0.00,,,0.00,weatherlink.com 1.10,2013-03-04 22:28:00,
2013-03-04 17:43:00,58.4,45.0,30.16,NW,325,2.0,8.0,61,0.00,,,0.00,weatherlink.com 1.10,2013-03-04 22:43:00,
2013-03-04 17:58:00,58.1,45.0,30.16,NNW,342,2.0,6.0,62,0.00,,,0.00,weatherlink.com 1.10,2013-03-04 22:58:00,
2013-03-04 18:13:00,57.4,45.0,30.16,NW,308,1.0,6.0,63,0.00,,,0.00,weatherlink.com 1.10,2013-03-04 23:13:00,
2013-03-04 18:28:00,55.9,44.0,30.16,WNW,302,1.0,5.0,65,0.00,,,0.00,weatherlink.com 1.10,2013-03-04 23:28:00,
2013-03-04 18:43:00,55.1,45.0,30.16,NNW,338,1.0,2.0,68,0.00,,,0.00,weatherlink.com 1.10,2013-03-04 23:43:00,
2013-03-04 18:58:00,54.6,45.0,30.16,NW,311,1.0,5.0,71,0.00,,,0.00,weatherlink.com 1.10,2013-03-04 23:58:00,
2013-03-04 19:13:00,54.3,45.0,30.16,ENE,66,0.0,3.0,72,0.00,,,0.00,weatherlink.com 1.10,2013-03-05 00:13:00,
2013-03-04 19:29:00,54.2,45.0,30.16,NW,315,2.0,2.0,72,0.00,,,0.00,weatherlink.com 1.10,2013-03-05 00:29:00,
2013-03-04 19:43:00,54.2,46.0,30.16,NNE,23,1.0,3.0,73,0.00,,,0.00,weatherlink.com 1.10,2013-03-05 00:43:00,
2013-03-04 19:58:00,53.9,46.0,30.16,NNE,20,0.0,2.0,74,0.00,,,0.00,weatherlink.com 1.10,2013-03-05 00:58:00,
2013-03-04 20:13:00,53.5,46.0,30.16,North,358,0.0,2.0,75,0.00,,,0.00,weatherlink.com 1.10,2013-03-05 01:13:00,
2013-03-04 20:28:00,52.9,46.0,30.16,North,359,0.0,0.0,76,0.00,,,0.00,weatherlink.com 1.10,2013-03-05 01:28:00,
2013-03-04 20:58:00,51.0,45.0,30.17,North,359,0.0,1.0,79,0.00,,,0.00,weatherlink.com 1.10,2013-03-05 01:58:00,
2013-03-04 21:13:00,50.4,45.0,30.17,North,358,0.0,0.0,81,0.00,,,0.00,weatherlink.com 1.10,2013-03-05 02:13:00,
2013-03-04 21:28:00,49.9,45.0,30.17,North,358,0.0,0.0,83,0.00,,,0.00,weatherlink.com 1.10,2013-03-05 02:28:00,
2013-03-04 21:43:00,49.5,45.0,30.17,North,359,0.0,0.0,84,0.00,,,0.00,weatherlink.com 1.10,2013-03-05 02:43:00,
2013-03-04 21:58:00,49.0,45.0,30.18,North,358,0.0,0.0,85,0.00,,,0.00,weatherlink.com 1.10,2013-03-05 02:58:00,
2013-03-04 22:13:00,49.2,46.0,30.18,North,359,0.0,0.0,87,0.00,,,0.00,weatherlink.com 1.10,2013-03-05 03:13:00,
2013-03-04 22:28:00,48.9,45.0,30.18,North,359,0.0,0.0,87,0.00,,,0.00,weatherlink.com 1.10,2013-03-05 03:28:00,
2013-03-04 22:43:00,48.6,45.0,30.18,North,359,0.0,0.0,87,0.00,,,0.00,weatherlink.com 1.10,2013-03-05 03:43:00,
2013-03-04 22:58:00,48.3,45.0,30.18,North,358,0.0,0.0,87,0.00,,,0.00,weatherlink.com 1.10,2013-03-05 03:58:00,
2013-03-04 23:13:00,48.1,45.0,30.18,North,359,0.0,1.0,88,0.00,,,0.00,weatherlink.com 1.10,2013-03-05 04:13:00,
2013-03-04 23:28:00,48.1,45.0,30.17,SSW,200,0.0,1.0,89,0.00,,,0.00,weatherlink.com 1.10,2013-03-05 04:28:00,
2013-03-04 23:43:00,48.2,45.0,30.17,ESE,102,0.0,2.0,88,0.00,,,0.00,weatherlink.com 1.10,2013-03-05 04:43:00,
2013-03-04 23:58:00,48.0,45.0,30.17,NW,319,0.0,1.0,88,0.00,,,0.00,weatherlink.com 1.10,2013-03-05 04:58:00,